period_start,C,m1,H,J0,J1,J2,J3,J4,J5,JA,JB,JC,JD,JJ,JK,JN,#
2015-03-23 00:02:09,0.11,4.03,0.00,23.59,26.87,29.80,4.76,27.46,1003.93,2033.23,2095.16,2353.64,2546.40,350.54,343.14,28.00,0000 0000 0000 0000 000000
2015-03-23 00:07:11,0.10,4.03,0.00,23.45,26.87,29.77,4.73,27.52,1003.93,2033.28,2094.38,2353.03,2545.99,349.88,342.85,28.03,0000 0000 0000 0000 000000
2015-03-23 00:12:12,0.12,4.04,0.00,23.34,26.87,29.76,4.73,27.48,1003.94,2033.45,2093.84,2352.61,2545.25,349.97,343.02,28.06,0000 0000 0000 0000 000000
2015-03-23 00:17:13,0.13,4.04,0.00,23.25,26.85,29.69,4.67,27.52,1003.94,2033.61,2093.03,2352.01,2544.90,349.81,342.99,28.08,0000 0000 0000 0000 000000
2015-03-23 00:22:15,0.15,4.05,0.00,23.44,26.85,29.65,4.69,27.49,1003.93,2033.75,2092.28,2351.55,2544.09,349.47,342.45,28.11,0000 0000 0000 0000 000000
2015-03-23 00:27:16,0.11,4.05,0.00,24.00,26.84,29.64,4.64,27.38,1003.92,2033.85,2091.61,2350.99,2543.60,349.77,342.11,28.14,0000 0000 0000 0000 000000
2015-03-23 00:32:17,0.10,4.05,0.00,24.24,26.84,29.66,4.70,27.50,1003.92,2033.89,2090.92,2350.28,2542.94,350.86,342.74,28.17,0000 0000 0000 0000 000000
2015-03-23 00:37:18,0.09,4.06,0.00,24.39,26.85,29.64,4.69,27.54,1003.92,2033.82,2090.09,2349.90,2542.13,350.16,341.75,28.20,0000 0000 0000 0000 000000
2015-03-23 00:42:20,0.03,4.06,0.00,24.32,26.85,29.67,4.63,27.47,1003.92,2033.43,2089.60,2349.09,2541.58,349.70,341.56,28.23,0000 0000 0000 0000 000000
2015-03-23 00:47:21,0.14,4.06,0.00,24.27,26.86,29.68,4.65,27.33,1003.92,2033.42,2088.63,2348.48,2540.86,350.03,342.10,28.26,0000 0000 0000 0000 000000
2015-03-23 00:52:22,0.07,4.06,0.00,24.15,26.87,29.73,4.72,27.52,1003.92,2033.25,2087.72,2347.86,2540.04,350.20,342.22,28.29,0000 0000 0000 0000 000000
2015-03-23 00:57:23,0.14,4.07,0.00,23.82,26.89,29.78,4.66,27.50,1003.92,2033.11,2086.63,2347.04,2539.19,350.10,342.60,28.32,0000 0000 0000 0000 000000
2015-03-23 01:02:25,0.15,4.07,0.00,23.70,26.90,29.81,4.73,27.55,1003.92,2033.06,2085.68,2346.30,2538.38,350.19,342.68,28.35,0000 0000 0000 0000 000000
2015-03-23 01:07:26,0.06,4.07,0.00,23.58,26.90,29.84,4.72,27.62,1003.89,2033.06,2084.96,2345.83,2537.82,350.03,342.85,28.38,0000 0000 0000 0000 000000
2015-03-23 01:12:27,0.14,4.08,0.00,23.41,26.89,29.79,4.69,27.55,1003.75,2033.05,2084.15,2345.07,2537.06,349.62,342.26,28.41,0000 0000 0000 0000 000000
2015-03-23 01:17:29,0.15,4.08,0.00,23.28,26.87,29.78,4.71,27.57,1003.64,2033.08,2083.34,2344.58,2536.42,349.55,342.42,28.44,0000 0000 0000 0000 000000
2015-03-23 01:22:30,0.11,4.09,0.00,23.22,26.87,29.73,4.72,27.44,1003.54,2033.11,2082.24,2343.92,2535.75,349.91,342.82,28.47,0000 0000 0000 0000 000000
2015-03-23 01:27:31,0.17,4.09,0.00,23.27,26.86,29.67,4.67,27.61,1003.49,2033.19,2081.25,2343.10,2534.96,350.17,343.04,28.49,0000 0000 0000 0000 000000
2015-03-23 01:32:32,0.22,4.09,0.00,23.82,26.85,29.64,4.72,27.62,1003.45,2033.44,2080.40,2342.48,2534.09,350.66,342.61,28.52,0000 0000 0000 0000 000000
2015-03-23 01:37:34,0.06,4.10,0.00,24.27,26.85,29.65,4.70,27.52,1003.45,2033.74,2079.96,2342.00,2533.71,350.34,342.12,28.55,0000 0000 0000 0000 000000
2015-03-23 01:42:35,0.07,4.10,0.00,24.45,26.85,29.66,4.71,27.68,1003.47,2033.61,2079.19,2341.48,2533.01,349.69,341.35,28.58,0000 0000 0000 0000 000000
2015-03-23 01:47:36,0.12,4.10,0.00,24.40,26.85,29.64,4.74,27.55,1003.46,2033.49,2078.57,2340.90,2532.26,350.29,342.02,28.61,0000 0000 0000 0000 000000
2015-03-23 01:52:37,0.11,4.11,0.00,24.42,26.87,29.66,4.67,27.48,1003.44,2033.30,2077.48,2340.07,2531.48,350.07,341.49,28.64,0000 0000 0000 0000 000000
2015-03-23 01:57:39,0.21,4.11,0.00,24.30,26.87,29.70,4.68,27.43,1003.43,2033.47,2076.39,2339.28,2530.71,349.88,341.73,28.67,0000 0000 0000 0000 000000
2015-03-23 02:02:40,0.08,4.12,0.00,23.90,26.90,29.77,4.67,27.54,1003.42,2033.28,2075.36,2338.56,2529.94,349.68,341.87,28.70,0000 0000 0000 0000 000000
2015-03-23 02:07:41,0.07,4.12,0.00,23.76,26.90,29.82,4.66,27.57,1003.29,2033.08,2074.54,2337.96,2529.08,349.59,341.84,28.73,0000 0000 0000 0000 000000
2015-03-23 02:12:42,0.17,4.12,0.00,23.62,26.90,29.81,4.63,27.66,1003.06,2033.02,2073.58,2337.12,2528.26,349.79,342.26,28.76,0000 0000 0000 0000 000000
2015-03-23 02:17:44,0.10,4.13,0.00,23.49,26.90,29.82,4.72,27.75,1002.97,2033.03,2072.85,2336.53,2527.75,349.78,342.29,28.79,0000 0000 0000 0000 000000
2015-03-23 02:22:45,0.10,4.13,0.00,23.38,26.90,29.77,4.74,27.68,1002.95,2033.03,2071.94,2335.92,2526.89,350.03,342.54,28.82,0000 0000 0000 0000 000000
2015-03-23 02:27:47,0.15,4.13,0.00,23.30,26.88,29.75,4.68,27.69,1002.94,2033.04,2071.08,2335.13,2526.08,349.90,342.69,28.85,0000 0000 0000 0000 000000
2015-03-23 02:32:48,0.14,4.14,0.00,23.66,26.87,29.68,4.72,27.66,1002.92,2033.07,2070.23,2334.66,2525.47,350.00,342.29,28.88,0000 0000 0000 0000 000000
2015-03-23 02:37:49,0.09,4.14,0.00,24.18,26.87,29.68,4.67,27.53,1002.92,2033.06,2069.54,2334.01,2524.86,349.68,341.37,28.90,0000 0000 0000 0000 000000
2015-03-23 02:42:51,0.14,4.14,0.00,24.46,26.87,29.69,4.72,27.53,1002.91,2033.09,2068.79,2333.23,2524.06,350.07,341.41,28.93,0000 0000 0000 0000 000000
2015-03-23 02:47:52,0.12,4.15,0.00,24.41,26.87,29.68,4.75,27.69,1002.94,2033.12,2067.93,2332.70,2523.25,349.63,341.11,28.96,0000 0000 0000 0000 000000
2015-03-23 02:52:54,0.13,4.15,0.00,24.27,26.89,29.70,4.76,27.64,1002.97,2033.08,2066.92,2331.96,2522.47,351.04,342.56,28.99,0000 0000 0000 0000 000000
2015-03-23 02:57:55,0.14,4.16,0.00,24.20,26.90,29.73,4.70,27.62,1003.10,2033.08,2065.90,2331.12,2521.71,350.47,342.33,29.02,0000 0000 0000 0000 000000
2015-03-23 03:02:57,0.14,4.16,0.00,23.88,26.91,29.77,4.71,27.59,1003.29,2033.06,2064.92,2330.45,2520.89,349.77,342.46,29.05,0000 0000 0000 0000 000000
2015-03-23 03:07:58,0.14,4.17,0.00,23.72,26.92,29.81,4.73,27.74,1003.23,2033.01,2063.82,2329.63,2520.02,349.94,342.06,29.08,0000 0000 0000 0000 000000
2015-03-23 03:12:59,0.12,4.17,0.00,23.59,26.92,29.81,4.72,27.73,1003.31,2033.00,2062.93,2329.00,2519.17,350.36,342.88,29.11,0000 0000 0000 0000 000000
2015-03-23 03:18:01,0.16,4.17,0.00,23.46,26.91,29.78,4.73,27.57,1003.35,2033.01,2062.01,2328.21,2518.40,350.52,343.14,29.14,0000 0000 0000 0000 000000
2015-03-23 03:23:02,0.13,4.18,0.00,23.35,26.90,29.75,4.70,27.53,1003.29,2033.02,2061.04,2327.64,2517.71,350.24,343.02,29.17,0000 0000 0000 0000 000000
2015-03-23 03:28:03,0.11,4.18,0.00,23.63,26.90,29.73,4.69,27.47,1003.18,2033.03,2060.09,2326.96,2516.96,350.04,342.44,29.20,0000 0000 0000 0000 000000
2015-03-23 03:33:04,0.15,4.19,0.00,24.17,26.89,29.69,4.65,27.59,1003.15,2033.03,2059.35,2326.14,2516.11,349.72,341.48,29.23,0000 0000 0000 0000 000000
2015-03-23 03:38:06,0.15,4.19,0.00,24.44,26.89,29.67,4.68,27.55,1003.16,2033.03,2058.42,2325.52,2515.36,349.92,341.28,29.26,0000 0000 0000 0000 000000
2015-03-23 03:43:07,0.12,4.19,0.00,24.45,26.90,29.69,4.72,27.60,1003.14,2033.05,2057.52,2324.83,2514.63,350.52,341.80,29.29,0000 0000 0000 0000 000000
2015-03-23 03:48:08,0.14,4.20,0.00,24.18,26.90,29.72,4.68,27.63,1003.01,2033.03,2056.43,2324.02,2513.78,349.69,341.48,29.31,0000 0000 0000 0000 000000
2015-03-23 03:53:09,0.14,4.20,0.00,23.79,26.90,29.77,4.67,27.57,1003.05,2033.01,2055.57,2323.25,2513.01,349.78,341.96,29.34,0000 0000 0000 0000 000000
2015-03-23 03:58:10,0.13,4.21,0.00,23.69,26.90,29.81,4.76,27.63,1003.09,2033.01,2054.65,2322.65,2512.19,349.99,342.16,29.37,0000 0000 0000 0000 000000
2015-03-23 04:03:12,0.14,4.21,0.00,23.55,26.90,29.80,4.75,27.69,1003.06,2033.00,2053.54,2321.88,2511.30,350.26,342.68,29.40,0000 0000 0000 0000 000000
2015-03-23 04:08:13,0.16,4.22,0.00,23.42,26.90,29.76,4.75,27.63,1003.20,2033.00,2052.42,2321.03,2510.29,350.38,343.12,29.43,0000 0000 0000 0000 000000
2015-03-23 04:13:15,0.15,4.22,0.00,23.31,26.88,29.73,4.73,27.57,1003.33,2033.00,2051.51,2320.24,2509.68,349.84,342.63,29.46,0000 0000 0000 0000 000000
2015-03-23 04:18:16,0.10,4.22,0.00,23.55,26.87,29.67,4.70,27.41,1003.34,2033.01,2050.70,2319.74,2508.97,350.66,342.85,29.49,0000 0000 0000 0000 000000
2015-03-23 04:23:18,0.11,4.23,0.00,24.10,26.87,29.66,4.68,27.52,1003.39,2033.02,2049.89,2319.02,2508.16,349.75,341.65,29.52,0000 0000 0000 0000 000000
2015-03-23 04:28:19,0.15,4.23,0.00,24.41,26.87,29.67,4.62,27.57,1003.43,2033.03,2048.95,2318.27,2507.39,349.91,341.47,29.55,0000 0000 0000 0000 000000
2015-03-23 04:33:21,0.16,4.24,0.00,24.47,26.87,29.65,4.69,27.55,1003.43,2033.01,2047.88,2317.60,2506.60,350.45,341.92,29.58,0000 0000 0000 0000 000000
2015-03-23 04:38:22,0.14,4.24,0.00,24.41,26.87,29.69,4.64,27.55,1003.43,2033.01,2046.98,2316.77,2505.68,349.90,341.52,29.61,0000 0000 0000 0000 000000
2015-03-23 04:43:23,0.12,4.24,0.00,24.37,26.89,29.70,4.62,27.56,1003.43,2033.00,2046.03,2316.00,2504.84,349.76,341.36,29.64,0000 0000 0000 0000 000000
2015-03-23 04:48:24,0.16,4.25,0.00,24.16,26.90,29.75,4.66,27.47,1003.43,2033.00,2045.15,2315.19,2504.03,350.04,341.89,29.67,0000 0000 0000 0000 000000
2015-03-23 04:53:26,0.16,4.25,0.00,23.83,26.90,29.79,4.80,27.66,1003.42,2033.00,2044.21,2314.54,2503.19,351.06,343.18,29.70,0000 0000 0000 0000 000000
2015-03-23 04:58:27,0.15,4.26,0.00,23.74,26.92,29.84,4.68,27.59,1003.41,2033.00,2043.12,2313.76,2502.27,349.89,342.07,29.72,0000 0000 0000 0000 000000
2015-03-23 05:03:28,0.16,4.26,0.00,23.58,26.91,29.84,4.72,27.67,1003.39,2033.00,2041.97,2312.95,2501.44,350.01,342.50,29.75,0000 0000 0000 0000 000000
2015-03-23 05:08:29,0.15,4.27,0.00,23.43,26.90,29.79,4.67,27.54,1003.33,2033.00,2040.98,2312.11,2500.59,350.43,343.10,29.78,0000 0000 0000 0000 000000
2015-03-23 05:13:31,0.15,4.27,0.00,23.32,26.90,29.77,4.79,27.66,1003.19,2033.00,2040.03,2311.41,2499.80,350.39,343.18,29.81,0000 0000 0000 0000 000000
2015-03-23 05:18:32,0.13,4.28,0.00,23.27,26.88,29.70,4.74,27.62,1002.98,2033.00,2039.04,2310.76,2498.98,350.16,343.02,29.84,0000 0000 0000 0000 000000
2015-03-23 05:23:34,0.14,4.28,0.00,23.63,26.87,29.68,4.73,27.52,1002.95,2033.00,2038.07,2310.02,2498.17,349.97,342.08,29.87,0000 0000 0000 0000 000000
2015-03-23 05:28:35,0.16,4.28,0.00,24.13,26.87,29.66,4.67,27.44,1002.95,2033.00,2037.15,2309.25,2497.34,350.14,341.72,29.90,0000 0000 0000 0000 000000
2015-03-23 05:33:36,0.11,4.29,0.00,24.45,26.87,29.69,4.69,27.45,1002.95,2033.02,2036.28,2308.76,2496.78,350.14,341.50,29.93,0000 0000 0000 0000 000000
2015-03-23 05:38:37,0.13,4.29,0.00,24.44,26.87,29.66,4.68,27.48,1002.95,2033.02,2035.44,2308.01,2495.98,350.09,341.31,29.96,0000 0000 0000 0000 000000
2015-03-23 05:43:38,0.16,4.30,0.00,24.35,26.87,29.68,4.66,27.48,1002.96,2033.01,2034.59,2307.14,2495.13,350.19,341.80,29.99,0000 0000 0000 0000 000000
2015-03-23 05:48:40,0.16,4.30,0.00,23.96,26.89,29.76,4.68,27.60,1002.96,2033.01,2033.58,2306.49,2494.47,350.36,342.30,30.02,0000 0000 0000 0000 000000
2015-03-23 05:53:41,0.13,4.30,0.00,23.75,26.90,29.79,4.71,27.48,1002.95,2033.00,2032.51,2305.78,2493.61,350.66,342.87,30.05,0000 0000 0000 0000 000000
2015-03-23 05:58:42,0.13,4.31,0.00,23.61,26.90,29.83,4.69,27.48,1002.95,2033.00,2031.54,2304.99,2492.77,349.36,341.52,30.08,0000 0000 0000 0000 000000
2015-03-23 06:03:43,0.16,4.31,0.00,23.46,26.89,29.78,4.66,27.52,1002.94,2033.00,2030.43,2304.14,2491.92,350.05,342.65,30.11,0000 0000 0000 0000 000000
2015-03-23 06:08:45,0.17,4.32,0.00,23.35,26.87,29.76,4.72,27.73,1002.94,2033.00,2029.33,2303.38,2491.05,350.44,342.93,30.13,0000 0000 0000 0000 000000
2015-03-23 06:13:46,0.11,4.32,0.00,23.27,26.87,29.72,4.73,27.56,1002.94,2033.02,2028.39,2302.95,2490.24,350.17,342.90,30.16,0000 0000 0000 0000 000000
2015-03-23 06:18:48,0.15,4.33,0.00,23.31,26.85,29.69,4.71,27.48,1002.94,2033.01,2027.52,2302.14,2489.59,349.96,342.78,30.19,0000 0000 0000 0000 000000
2015-03-23 06:23:49,0.11,4.33,0.00,23.82,26.85,29.66,4.69,27.36,1002.94,2033.02,2026.72,2301.56,2488.88,350.18,342.41,30.22,0000 0000 0000 0000 000000
2015-03-23 06:28:50,0.13,4.33,0.00,24.25,26.85,29.66,4.70,27.43,1002.94,2033.03,2025.73,2300.87,2488.04,350.86,342.39,30.25,0000 0000 0000 0000 000000
2015-03-23 06:33:52,0.17,4.34,0.00,24.42,26.85,29.68,4.64,27.44,1002.94,2033.01,2024.64,2300.00,2487.16,350.22,341.63,30.28,0000 0000 0000 0000 000000
2015-03-23 06:38:53,0.17,4.34,0.00,24.44,26.85,29.66,4.72,27.46,1002.94,2033.00,2023.54,2299.13,2486.15,350.25,341.71,30.31,0000 0000 0000 0000 000000
2015-03-23 06:43:54,0.16,4.35,0.00,24.31,26.87,29.69,4.70,27.54,1002.94,2033.00,2022.58,2298.38,2485.35,349.80,341.38,30.34,0000 0000 0000 0000 000000
2015-03-23 06:48:56,0.16,4.35,0.00,23.87,26.87,29.77,4.63,27.48,1002.95,2033.00,2021.50,2297.64,2484.49,349.85,341.67,30.37,0000 0000 0000 0000 000000
2015-03-23 06:53:57,0.13,4.36,0.00,23.73,26.88,29.79,4.75,27.59,1002.94,2033.00,2020.43,2296.87,2483.68,350.19,342.12,30.40,0000 0000 0000 0000 000000
2015-03-23 06:58:59,0.16,4.36,0.00,23.60,26.88,29.79,4.68,27.62,1002.95,2033.00,2019.30,2296.05,2482.76,349.61,341.75,30.43,0000 0000 0000 0000 000000
2015-03-23 07:04:00,0.15,4.37,0.00,23.48,26.87,29.77,4.74,27.69,1002.96,2033.00,2018.46,2295.42,2481.91,349.85,342.19,30.46,0000 0000 0000 0000 000000
2015-03-23 07:09:01,0.13,4.37,0.00,23.41,26.87,29.73,4.73,27.74,1002.95,2033.00,2017.56,2294.74,2481.09,349.69,342.23,30.49,0000 0000 0000 0000 000000
2015-03-23 07:14:03,0.13,4.37,0.00,23.37,26.87,29.71,4.63,27.63,1002.96,2033.00,2016.65,2294.02,2480.48,349.57,342.16,30.52,0000 0000 0000 0000 000000
2015-03-23 07:19:04,0.11,4.38,0.00,23.82,26.85,29.67,4.69,27.60,1002.96,2033.00,2015.92,2293.18,2479.83,349.91,341.99,30.54,0000 0000 0000 0000 000000
2015-03-23 07:24:05,0.16,4.38,0.00,24.30,26.85,29.67,4.68,27.68,1002.96,2033.00,2014.89,2292.56,2478.96,350.16,341.68,30.57,0000 0000 0000 0000 000000
2015-03-23 07:29:06,0.12,4.39,0.00,24.41,26.86,29.68,4.71,27.48,1002.98,2033.01,2013.89,2291.94,2478.11,350.37,341.77,30.60,0000 0000 0000 0000 000000
2015-03-23 07:34:08,0.17,4.39,0.00,24.50,26.87,29.67,4.65,27.51,1003.32,2033.00,2012.85,2291.10,2477.23,350.80,342.12,30.63,0000 0000 0000 0000 000000
2015-03-23 07:39:09,0.16,4.40,0.00,24.22,26.87,29.69,4.69,27.52,1003.43,2033.01,2011.89,2290.32,2476.42,349.84,341.58,30.66,0000 0000 0000 0000 000000
2015-03-23 07:44:10,0.16,4.40,0.00,23.91,26.90,29.78,4.70,27.51,1003.43,2033.00,2010.84,2289.60,2475.58,349.48,341.64,30.69,0000 0000 0000 0000 000000
2015-03-23 07:49:12,0.14,4.41,0.00,23.82,26.90,29.81,4.66,27.52,1003.43,2033.00,2009.75,2288.86,2474.70,349.93,342.29,30.72,0000 0000 0000 0000 000000
2015-03-23 07:54:13,0.13,4.41,0.00,23.71,26.90,29.79,4.68,27.42,1003.42,2033.00,2008.75,2288.06,2473.95,350.10,342.34,30.75,0000 0000 0000 0000 000000
2015-03-23 07:59:14,0.16,4.41,0.00,23.59,26.90,29.79,4.73,27.58,1003.23,2033.00,2007.79,2287.41,2473.11,350.03,342.65,30.78,0000 0000 0000 0000 000000
2015-03-23 08:04:15,0.16,4.42,0.00,23.50,26.88,29.73,4.69,27.56,1003.14,2033.00,2006.72,2286.69,2472.32,349.67,342.11,30.81,0000 0000 0000 0000 000000
2015-03-23 08:09:16,0.12,4.42,0.00,23.46,26.87,29.69,4.71,27.59,1003.38,2033.00,2005.74,2285.99,2471.58,350.26,342.78,30.84,0000 0000 0000 0000 000000
2015-03-23 08:14:17,0.16,4.43,0.00,23.42,26.86,29.65,4.68,27.43,1003.43,2033.00,2004.70,2285.17,2470.79,350.12,342.88,30.87,0000 0000 0000 0000 000000
2015-03-23 08:19:18,0.15,4.43,0.00,23.39,26.85,29.65,4.68,27.52,1003.43,2033.02,2003.70,2284.54,2469.97,349.82,342.49,30.90,0000 0000 0000 0000 000000
2015-03-23 08:24:20,0.14,4.44,0.00,23.39,26.85,29.69,4.76,27.47,1003.44,2033.00,2002.69,2283.81,2469.09,350.28,343.00,30.93,0000 0000 0000 0000 000000
2015-03-23 08:29:21,0.12,4.44,0.00,23.37,26.83,29.65,4.74,27.36,1003.48,2033.03,2001.93,2283.05,2468.35,350.17,342.81,30.95,0000 0000 0000 0000 000000
2015-03-23 08:34:22,0.15,4.44,0.00,23.36,26.82,29.63,4.72,27.50,1003.60,2033.04,2001.07,2282.49,2467.68,349.91,342.76,30.98,0000 0000 0000 0000 000000
2015-03-23 08:39:23,0.11,4.45,0.00,23.37,26.82,29.62,4.65,27.50,1003.63,2033.06,2000.13,2281.87,2466.94,349.79,342.65,31.01,0000 0000 0000 0000 000000
2015-03-23 08:44:25,0.16,4.45,0.00,23.39,26.81,29.59,4.72,27.48,1003.56,2033.07,1999.20,2281.06,2466.08,349.82,342.59,31.04,0000 0000 0000 0000 000000
2015-03-23 08:49:26,0.16,4.46,0.00,23.44,26.80,29.59,4.70,27.48,1003.75,2033.06,1998.36,2280.45,2465.37,349.82,342.53,31.07,0000 0000 0000 0000 000000
2015-03-23 08:54:27,0.08,4.46,0.00,23.43,26.80,29.58,4.68,27.55,1003.91,2033.06,1997.65,2279.95,2464.78,349.82,342.51,31.10,0000 0000 0000 0000 000000
2015-03-23 08:59:29,0.16,4.47,0.00,23.36,26.80,29.62,4.69,27.38,1003.92,2033.15,1996.81,2279.16,2464.03,349.60,342.56,31.13,0000 0000 0000 0000 000000
2015-03-23 09:04:30,0.12,4.47,0.00,23.34,26.80,29.65,4.77,27.47,1003.92,2033.18,1995.88,2278.65,2463.33,350.29,343.32,31.16,0000 0000 0000 0000 000000
2015-03-23 09:09:31,0.10,4.47,0.00,23.30,26.78,29.66,4.75,27.37,1003.92,2033.12,1995.05,2278.01,2462.63,350.22,343.24,31.19,0000 0000 0000 0000 000000
2015-03-23 09:14:32,0.17,4.48,0.00,23.53,26.77,29.65,4.75,27.40,1003.94,2033.25,1994.31,2277.37,2461.99,350.47,343.22,31.22,0000 0000 0000 0000 000000
2015-03-23 09:19:33,0.08,4.48,0.00,24.11,26.77,29.63,4.69,27.38,1003.98,2033.26,1993.76,2276.88,2461.17,350.00,342.10,31.25,0000 0000 0000 0000 000000
2015-03-23 09:24:34,0.11,4.48,0.00,24.39,26.79,29.62,4.79,27.43,1004.12,2033.13,1992.91,2276.10,2460.53,350.36,342.17,31.28,0000 0000 0000 0000 000000
2015-03-23 09:29:36,0.14,4.49,0.00,24.35,26.80,29.61,4.68,27.34,1004.15,2033.11,1992.05,2275.47,2459.84,349.93,341.71,31.31,0000 0000 0000 0000 000000
2015-03-23 09:34:37,0.12,4.49,0.00,24.00,26.82,29.62,4.73,27.42,1004.08,2033.05,1991.17,2274.82,2459.00,350.72,342.88,31.34,0000 0000 0000 0000 000000
2015-03-23 09:39:38,0.14,4.50,0.00,23.77,26.82,29.76,4.71,27.48,1004.09,2033.00,1990.24,2274.05,2458.11,350.20,343.04,31.36,0000 0000 0000 0000 000000
2015-03-23 09:44:40,0.17,4.50,0.00,23.73,26.84,29.80,4.71,27.32,1003.96,2033.00,1989.20,2273.27,2457.31,350.13,342.64,31.39,0000 0000 0000 0000 000000
2015-03-23 09:49:41,0.12,4.50,0.00,23.63,26.85,29.78,4.72,27.28,1003.99,2033.00,1988.28,2272.74,2456.64,350.15,342.87,31.42,0000 0000 0000 0000 000000
2015-03-23 09:54:43,0.12,4.51,0.00,23.49,26.85,29.75,4.66,27.33,1004.03,2033.00,1987.35,2272.02,2455.95,349.91,342.88,31.45,0000 0000 0000 0000 000000
2015-03-23 09:59:44,0.16,4.51,0.00,23.39,26.84,29.73,4.79,27.51,1004.18,2033.00,1986.46,2271.33,2455.11,350.00,342.90,31.48,0000 0000 0000 0000 000000
2015-03-23 10:04:45,0.24,4.52,0.00,23.36,26.83,29.70,4.72,27.54,1004.38,2033.00,1984.73,2270.36,2454.13,349.94,343.03,31.51,0000 0000 0000 0000 000000
2015-03-23 10:09:47,0.16,4.52,0.00,23.30,26.82,29.70,4.71,27.36,1004.41,2033.01,1983.70,2269.52,2453.11,349.94,343.09,31.54,0000 0000 0000 0000 000000
2015-03-23 10:14:48,0.09,4.53,0.00,23.29,26.82,29.70,4.69,27.38,1004.41,2033.01,1982.87,2268.98,2452.58,350.56,343.61,31.57,0000 0000 0000 0000 000000
2015-03-23 10:19:49,0.19,4.53,0.00,23.26,26.80,29.67,4.76,27.44,1004.33,2033.04,1981.75,2268.14,2451.72,350.02,343.13,31.60,0000 0000 0000 0000 000000
2015-03-23 10:24:50,0.06,4.54,0.00,23.25,26.80,29.60,4.69,27.37,1004.04,2033.06,1981.07,2267.84,2451.03,350.21,343.33,31.63,0000 0000 0000 0000 000000
2015-03-23 10:29:51,0.15,4.54,0.00,23.25,26.78,29.64,4.81,27.53,1003.96,2033.05,1980.62,2267.06,2450.47,350.48,343.43,31.66,0000 0000 0000 0000 000000
2015-03-23 10:34:52,0.13,4.54,0.00,23.24,26.77,29.64,4.80,27.41,1003.95,2033.08,1979.73,2266.54,2449.84,350.33,343.37,31.69,0000 0000 0000 0000 000000
2015-03-23 10:39:54,0.10,4.55,0.00,23.25,26.77,29.61,4.62,27.43,1003.96,2033.09,1978.94,2265.96,2449.05,349.19,342.33,31.72,0000 0000 0000 0000 000000
2015-03-23 10:44:55,0.18,4.55,0.00,23.24,26.75,29.58,4.69,27.39,1004.03,2033.17,1978.06,2265.14,2448.40,349.55,342.59,31.75,0000 0000 0000 0000 000000
2015-03-23 10:49:56,0.13,4.55,0.00,23.22,26.75,29.59,4.74,27.48,1004.23,2033.30,1977.24,2264.78,2447.92,350.19,343.28,31.77,0000 0000 0000 0000 000000
2015-03-23 10:54:57,0.16,4.56,0.00,23.43,26.74,29.57,4.72,27.28,1004.21,2033.45,1976.60,2264.04,2447.10,349.93,342.87,31.80,0000 0000 0000 0000 000000
2015-03-23 10:59:58,0.11,4.56,0.00,24.03,26.73,29.59,4.70,27.38,1004.09,2033.61,1975.92,2263.69,2446.56,350.14,342.32,31.83,0000 0000 0000 0000 000000
2015-03-23 11:04:59,0.09,4.57,0.00,24.38,26.74,29.57,4.72,27.50,1004.01,2033.44,1975.03,2262.90,2445.79,350.24,342.09,31.86,0000 0000 0000 0000 000000
2015-03-23 11:10:00,0.09,4.57,0.00,24.50,26.75,29.58,4.70,27.26,1004.05,2033.10,1974.05,2262.07,2444.97,350.06,341.75,31.89,0000 0000 0000 0000 000000
2015-03-23 11:15:02,0.17,4.57,0.00,24.41,26.76,29.55,4.62,27.41,1004.29,2033.07,1973.16,2261.38,2444.13,349.21,341.22,31.92,0000 0000 0000 0000 000000
2015-03-23 11:20:03,0.06,4.58,0.00,23.97,26.78,29.63,4.72,27.38,1004.38,2033.02,1972.69,2260.96,2443.57,350.59,342.91,31.95,0000 0000 0000 0000 000000
2015-03-23 11:25:04,0.13,4.58,0.00,23.83,26.80,29.75,4.74,27.47,1004.35,2033.01,1971.91,2260.15,2442.94,350.41,342.99,31.98,0000 0000 0000 0000 000000
2015-03-23 11:30:05,0.12,4.58,0.00,23.72,26.80,29.77,4.70,27.33,1004.40,2033.00,1971.06,2259.78,2442.11,349.79,342.45,32.01,0000 0000 0000 0000 000000
2015-03-23 11:35:07,0.14,4.59,0.00,23.57,26.80,29.76,4.75,27.28,1004.41,2033.00,1970.19,2259.03,2441.58,350.13,343.00,32.04,0000 0000 0000 0000 000000
2015-03-23 11:40:08,0.11,4.59,0.00,23.44,26.80,29.77,4.71,27.41,1004.39,2033.00,1969.49,2258.64,2440.99,349.89,343.28,32.07,0000 0000 0000 0000 000000
2015-03-23 11:45:09,0.11,4.59,0.00,23.35,26.80,29.73,4.71,27.38,1004.19,2033.00,1968.74,2258.02,2440.19,350.20,343.39,32.10,0000 0000 0000 0000 000000
2015-03-23 11:50:11,0.12,4.60,0.00,23.30,26.80,29.71,4.71,27.52,1004.03,2033.00,1968.01,2257.40,2439.77,349.67,342.75,32.13,0000 0000 0000 0000 000000
2015-03-23 11:55:12,0.09,4.60,0.00,23.23,26.80,29.69,4.75,27.39,1003.94,2033.00,1967.32,2257.00,2439.03,350.22,343.29,32.16,0000 0000 0000 0000 000000
2015-03-23 12:00:13,0.16,4.60,0.00,23.18,26.78,29.67,4.75,27.43,1003.92,2033.00,1966.46,2256.29,2438.43,350.23,343.20,32.18,0000 0000 0000 0000 000000
2015-03-23 12:05:14,0.08,4.61,0.00,23.21,26.77,29.67,4.79,27.51,1003.92,2033.00,1965.56,2255.89,2437.87,350.26,343.36,32.21,0000 0000 0000 0000 000000
2015-03-23 12:10:16,0.11,4.61,0.00,23.77,26.77,29.62,4.69,27.34,1003.92,2033.00,1964.99,2255.17,2437.08,349.88,342.12,32.24,0000 0000 0000 0000 000000
2015-03-23 12:15:17,0.08,4.61,0.00,24.13,26.77,29.62,4.73,27.47,1003.92,2033.01,1964.36,2254.96,2436.83,349.60,341.58,32.27,0000 0000 0000 0000 000000
2015-03-23 12:20:18,0.12,4.62,0.00,24.27,26.77,29.60,4.61,27.46,1003.93,2033.01,1963.81,2254.22,2436.06,350.13,342.11,32.30,0000 0000 0000 0000 000000
2015-03-23 12:25:19,0.09,4.62,0.00,24.33,26.79,29.64,4.63,27.42,1003.93,2033.01,1963.02,2253.90,2435.43,349.63,341.54,32.33,0000 0000 0000 0000 000000
2015-03-23 12:30:21,0.14,4.62,0.00,24.26,26.80,29.66,4.64,27.38,1003.97,2033.00,1962.24,2253.10,2434.93,349.61,341.60,32.36,0000 0000 0000 0000 000000
2015-03-23 12:35:22,0.15,4.63,0.00,23.83,26.82,29.71,4.70,27.46,1004.17,2033.00,1961.38,2252.61,2434.11,350.10,342.52,32.39,0000 0000 0000 0000 000000
2015-03-23 12:40:23,0.12,4.63,0.00,23.66,26.82,29.80,4.74,27.32,1004.01,2033.00,1960.42,2252.00,2433.53,350.35,342.96,32.42,0000 0000 0000 0000 000000
2015-03-23 12:45:24,0.18,4.64,0.00,23.58,26.82,29.82,4.69,27.43,1003.98,2033.00,1959.23,2251.14,2432.68,350.06,342.68,32.45,0000 0000 0000 0000 000000
2015-03-23 12:50:26,0.10,4.64,0.00,23.43,26.82,29.79,4.71,27.46,1003.93,2033.00,1958.19,2250.81,2432.02,350.31,343.07,32.48,0000 0000 0000 0000 000000
2015-03-23 12:55:27,0.14,4.64,0.00,23.29,26.82,29.75,4.74,27.38,1003.94,2033.00,1957.52,2250.07,2431.48,350.07,342.91,32.51,0000 0000 0000 0000 000000
2015-03-23 13:00:28,0.06,4.65,0.00,23.20,26.82,29.73,4.72,27.43,1003.96,2033.00,1956.86,2249.76,2431.00,350.11,343.22,32.54,0000 0000 0000 0000 000000